Ahmedabad, India

10:44 AM IST on March 30, 2017 (GMT +0530)
Ahmedabad

Weather History for VAAH - October, 2013

Change the Weather History Date:

Tuesday, October 15, 2013

  Actual Average Record
Temperature  
Mean Temperature 84 °F -  
Max Temperature 96 °F 90 °F 101 °F (2015)
Min Temperature 73 °F 66 °F 66 °F (2007)
Cooling Degree Days 20    
Growing Degree Days 34 (Base 50)    
Moisture  
Dew Point 75 °F    
Average Humidity 70    
Maximum Humidity 94    
Minimum Humidity 41    
Precipitation  
Precipitation 0.00 in 0.02 in - ()
Sea Level Pressure  
Sea Level Pressure 29.81 in    
Wind  
Wind Speed 2 mph ()    
Max Wind Speed 6 mph    
Max Gust Speed -    
Visibility 2.6 miles    
Events      
Averages and records for this station are not official NWS values.
T = Trace of Precipitation, MM = Missing Value Source: Averaged Metar Reports

Daily Weather History Graph

Daily Weather History Graph

Search for Another Location

Airport or City:

Trip Planner

Search our weather history database for the weather conditions in past years. The results will help you decide how hot, cold, wet, or windy it might be!

Date:

Astronomy

Oct. 15, 2013 Rise Set
Actual Time 6:36 AM IST 6:13 PM IST
Civil Twilight 6:13 AM IST 6:36 PM IST
Nautical Twilight 5:47 AM IST 7:02 PM IST
Astronomical Twilight 5:21 AM IST 7:28 PM IST
Moon 3:41 PM IST (10/15) 2:54 AM IST (10/15)
Length of Visible Light 12h 23m
Length of Day
11h 37m
Waxing Gibbous, 84% of the Moon is Illuminated
Oct 15
Waxing Gibbous
Oct 19
Full
Oct 27
Last Quarter
Nov 3
New
Nov 10
First Quarter

Hourly Weather History & Observations

Time (IST) Temp. Heat Index Dew Point Humidity Pressure Visibility Wind Dir Wind Speed Gust Speed Precip Events Conditions
12:10 AM 80.6 °F 86.2 °F 75.2 °F 84% 29.80 in 2.5 mi NW 3.5 mph - N/A   Haze
12:40 AM 80.6 °F 86.2 °F 75.2 °F 84% 29.80 in 2.5 mi North 3.5 mph - N/A   Haze
1:10 AM 78.8 °F - 73.4 °F 83% 29.80 in 2.5 mi North 3.5 mph - N/A   Haze
1:40 AM 78.8 °F - 73.4 °F 83% 29.80 in 2.5 mi Calm Calm - N/A   Haze
2:10 AM 78.8 °F - 73.4 °F 83% 29.77 in 2.5 mi Calm Calm - N/A   Haze
2:30 AM 77 °F - 74 °F 86% 29.78 in 2 mi Calm Calm - -   Haze
2:40 AM 78.8 °F - 73.4 °F 83% 29.77 in 2.5 mi Calm Calm - N/A   Haze
3:10 AM 77.0 °F - 71.6 °F 83% 29.77 in 2.5 mi Calm Calm - N/A   Haze
3:40 AM 77.0 °F - 71.6 °F 83% 29.77 in 2.5 mi North 3.5 mph - N/A   Haze
4:10 AM 77.0 °F - 71.6 °F 83% 29.77 in 2.5 mi NNW 3.5 mph - N/A   Haze
4:40 AM 77.0 °F - 71.6 °F 83% 29.77 in 2.5 mi NNW 3.5 mph - N/A   Haze
5:10 AM 77.0 °F - 71.6 °F 83% 29.80 in 2.5 mi NNW 3.5 mph - N/A   Haze
5:30 AM 75 °F - 71 °F 85% 29.79 in 2 mi WNW 2.3 mph - -  
5:40 AM 77.0 °F - 71.6 °F 83% 29.80 in 2.5 mi Calm Calm - N/A   Haze
6:10 AM 75.2 °F - 73.4 °F 94% 29.80 in 2.5 mi Calm Calm - N/A   Haze
6:40 AM 75.2 °F - 71.6 °F 89% 29.83 in 2.5 mi Calm Calm - N/A   Haze
7:10 AM 75.2 °F - 71.6 °F 89% 29.83 in 2.5 mi Calm Calm - N/A   Haze
8:30 AM 83 °F - 73 °F 65% 29.86 in 1 mi Calm Calm - -   Haze
9:10 AM 86.0 °F 95.1 °F 75.2 °F 70% 29.89 in 1.9 mi Calm Calm - N/A   Haze
9:40 AM 87.8 °F 102.5 °F 78.8 °F 75% 29.89 in 2.2 mi NW 2.3 mph - N/A   Haze
10:10 AM 89.6 °F 104.7 °F 78.8 °F 70% 29.86 in 2.5 mi North 4.6 mph - N/A   Haze
10:40 AM 89.6 °F 104.7 °F 78.8 °F 70% 29.86 in 2.5 mi NNW 3.5 mph - N/A   Haze
11:30 AM 90 °F - 77 °F 57% 29.86 in 2 mi WNW 2.3 mph - -   Scattered Clouds
11:40 AM 91.4 °F 107.2 °F 78.8 °F 66% 29.86 in 3.1 mi NNW 5.8 mph - N/A   Smoke
12:10 PM 93.2 °F 107.2 °F 77.0 °F 59% 29.83 in 3.1 mi WNW 3.5 mph - N/A   Smoke
12:40 PM 93.2 °F 105.0 °F 75.2 °F 56% 29.83 in 3.1 mi NW 5.8 mph - N/A   Smoke
1:10 PM 95.0 °F 109.7 °F 77.0 °F 56% 29.80 in 3.7 mi WNW 5.8 mph - N/A   Partly Cloudy
1:40 PM 95.0 °F 109.7 °F 77.0 °F 56% 29.80 in 3.7 mi NW 3.5 mph - N/A   Partly Cloudy
2:10 PM 95.0 °F 104.5 °F 73.4 °F 49% 29.77 in 3.7 mi NNW 3.5 mph - N/A   Partly Cloudy
2:30 PM 94 °F - 73 °F 41% 29.78 in 2 mi Calm Calm - -   Scattered Clouds
2:40 PM 95.0 °F 104.5 °F 73.4 °F 49% 29.77 in 3.7 mi NNW 4.6 mph - N/A   Partly Cloudy
3:10 PM 95.0 °F 103.2 °F 71.6 °F 47% 29.77 in 3.7 mi NW 3.5 mph - N/A   Partly Cloudy
3:40 PM 95.0 °F 104.5 °F 73.4 °F 49% 29.74 in 3.7 mi NW 3.5 mph - N/A   Partly Cloudy
4:10 PM 95.0 °F 107.4 °F 75.2 °F 53% 29.74 in 3.7 mi NNW 3.5 mph - N/A   Partly Cloudy
4:40 PM 95.0 °F 107.4 °F 75.2 °F 53% 29.77 in 3.7 mi WNW 2.3 mph - N/A   Partly Cloudy
5:10 PM 93.2 °F 105.0 °F 75.2 °F 56% 29.77 in 3.7 mi NW 2.3 mph - N/A   Partly Cloudy
5:30 PM 92 °F - 78 °F 56% 29.78 in 2 mi Calm Calm - -   Scattered Clouds
5:40 PM 93.2 °F 102.4 °F 73.4 °F 52% 29.77 in 3.7 mi WNW 2.3 mph - N/A   Partly Cloudy
6:40 PM 89.6 °F 98.2 °F 73.4 °F 59% 29.77 in 2.5 mi Calm Calm - N/A   Smoke
7:10 PM 89.6 °F 98.2 °F 73.4 °F 59% 29.80 in 2.5 mi West 2.3 mph - N/A   Smoke
7:40 PM 87.8 °F 97.6 °F 75.2 °F 66% 29.80 in 2.5 mi West 2.3 mph - N/A   Haze
8:10 PM 87.8 °F 99.7 °F 77.0 °F 70% 29.83 in 2.5 mi NW 2.3 mph - N/A   Haze
8:30 PM 84 °F - 75 °F 68% 29.82 in 2 mi Calm Calm - -  
8:40 PM 86.0 °F 95.1 °F 75.2 °F 70% 29.83 in 2.5 mi Calm Calm - N/A   Haze
9:10 PM 84.2 °F 92.3 °F 75.2 °F 74% 29.83 in 2.5 mi NNW 2.3 mph - N/A   Haze
9:40 PM 84.2 °F 92.3 °F 75.2 °F 74% 29.83 in 2.5 mi Calm Calm - N/A   Haze
10:10 PM 84.2 °F 94.1 °F 77.0 °F 79% 29.83 in 2.5 mi Calm Calm - N/A   Haze
10:40 PM 82.4 °F 89.5 °F 75.2 °F 79% 29.83 in 2.5 mi Calm Calm - N/A   Haze
11:10 PM 82.4 °F 89.5 °F 75.2 °F 79% 29.83 in 2.5 mi NNW 2.3 mph - N/A   Haze
11:30 PM 80 °F - 75 °F 80% 29.84 in 1 mi Calm Calm - -   Haze
11:40 PM 82.4 °F 90.9 °F 77.0 °F 84% 29.83 in 2.5 mi North 2.3 mph - N/A   Haze